Weather in Murzanayevo

Russia / Mari El Republic     56°44′22″N   49°14′58″E
temp.,
°C
wind,
m/s
gust,
m/s
humid.,
%
clouds,
%
prec.,
mm/h
press.,
hPa
HPBL,
m
23 october, sat
sat2300:00+8wsw714785 0.0 999856
03:00+7wsw7148098 0.1 1001727
06:00+6wsw61382100 0.0 1002724
09:00+6sw61275100 0.0 1004945
12:00+8wsw71163100 0.0 10061079
15:00+8sw6116552 0.0 10061123
18:00+6sw4107514 0.0 1008297
21:00+4sw49815 0.0 1008195
24 october, sun
sun2400:00+3ssw3983100 0.0 1008194
03:00+4sw41080100 0.1 1007325
06:00+2sw389116 0.1 1007182
09:00+3wsw5118357 0.1 1007651
12:00+5w7107299 0.0 10081045
15:00+4w6974100 0.1 10091076
18:00+4wsw5977100 0.0 1011687
21:00+3sw4775100 0.1 1011361
25 october, mon
mon2500:00+3sw3788100 0.0 1012504
03:00+3w2493100 0.1 1012455
06:00+2nw3599100 1.9 1013282
09:000n7119495 3.4 1016789
12:00+2n710625 0.1 1019982
15:00+1nnw610665 0.1 1021909
18:00−2wnw410785 0.0 1023276
21:00−2wnw4982100 0.0 1024228
26 october, tue
tue2600:00−2wsw3883100 0.0 1024230
03:00−1sw51176100 0.0 1022472
06:00−2sw61395100 0.3 1020658
09:000sw61292100 0.9 1019587
12:00+2wsw61080100 0.3 1018673
15:00+1wsw5108767 0.3 1017522
18:00+1wsw51294100 0.0 1018488
21:00+2wsw51190100 0.1 1018513
27 october, wed
wed2700:00+1wsw5118881 0.0 1018352
03:00−1wsw41094100 0.0 1018231
06:00−1sw4995100 0.0 1017251
09:00+1sw51184100 0.0 1017392
12:00+4sw51171100 0.0 1015563
15:00+3sw61271100 0.0 1014599
18:00+3sw61570100 0.0 1012536
21:00+3sw61468100 0.0 1011608